Regional Weather Roundup
Issued by NWS

Home | Current Version | Previous Version | Graphics & Text | Print | Product List | Glossary On
Versions: 1 2 3 4 5 6 7 8 9 10 11 12 13 14 15 16 17 18 19 20 21 22 23 24 25 26 27 28
000
ASUS45 KPSR 240610
RWRAZ

ARIZONA HOURLY REGIONAL WEATHER ROUNDUP
NATIONAL WEATHER SERVICE PHOENIX AZ
1100 PM MST THU FEB 23 2017

NOTE: FAIR INDICATES FEW OR NO CLOUDS BELOW 12,000 FEET WITH NO
SIGNIFICANT WEATHER AND/OR OBSTRUCTIONS TO VISIBILITY.

AZZ001>003-036-240700-
NORTHWEST ARIZONA

CITY           SKY/WX    TMP DP  RH WIND       PRES   REMARKS
BULLHEAD CITY  CLEAR     52  16  24 E6        30.00R
KINGMAN        CLEAR     32   3  29 S5        29.97R WCI  27
6HR MIN TEMP:  31; 6HR MAX TEMP:  49;

$$

AZZ004>008-015-016-018-240700-
NORTH CENTRAL ARIZONA

CITY           SKY/WX    TMP DP  RH WIND       PRES   REMARKS
GRAND CANYON   CLEAR     24   7  48 W5        29.90R WCI  18
6HR MIN TEMP:  23; 6HR MAX TEMP:  34;

WILLIAMS       CLEAR     23   7  50 W5        29.92R WCI  17
PRESCOTT       CLEAR     31  14  49 SW7       29.95R WCI  24
6HR MIN TEMP:  30; 6HR MAX TEMP:  43;

FLAGSTAFF      CLEAR     24   5  44 W5        29.90R WCI  18
6HR MIN TEMP:  24; 6HR MAX TEMP:  35;

PAYSON         PTCLDY    34  23  64 W6        29.96F WCI  29
PAGE           CLOUDY    38   7  27 W5        29.88S WCI  34
6HR MIN TEMP:  37; 6HR MAX TEMP:  45;

$$

AZZ009>014-017-240700-
NORTHEAST ARIZONA

CITY           SKY/WX    TMP DP  RH WIND       PRES   REMARKS
WINSLOW        PTCLDY    38  17  42 W17       29.91R WCI  28
6HR MIN TEMP:  38; 6HR MAX TEMP:  46;

SAINT JOHNS    PTCLDY    33  14  45 W21G37    29.86R WCI  21
6HR MIN TEMP:  33; 6HR MAX TEMP:  48;

WINDOW ROCK    CLOUDY    32  11  41 W9        29.82R WCI  24
6HR MIN TEMP:  28; 6HR MAX TEMP:  37;

SHOW LOW       CLEAR     27  14  59 SW7       29.92S WCI  19
$$

AZZ023-240700-
GREATER PHOENIX AREA

CITY           SKY/WX    TMP DP  RH WIND       PRES   REMARKS
PHOENIX        CLEAR     50  28  42 SW6       29.97R
6HR MIN TEMP:  50; 6HR MAX TEMP:  62;

BUCKEYE        CLEAR     48  27  43 W9        29.99S
LUKE AFB       CLEAR     49  28  44 N8        29.97R
6HR MIN TEMP:  49; 6HR MAX TEMP:  61; 6HR PCP: TRACE;

DEER VALLEY    CLEAR     48  27  44 W3        29.97R
6HR MIN TEMP:  48; 6HR MAX TEMP:  59;

SCOTTSDALE     CLEAR     51  23  33 CALM      29.98R
6HR MIN TEMP:  51; 6HR MAX TEMP:  60;

MESA-GATEWAY   CLEAR     50  23  34 W7        29.99R
$$

AZZ027-028-240700-
SOUTHWEST MARICOPA COUNTY AND PINAL COUNTY

CITY           SKY/WX    TMP DP  RH WIND       PRES   REMARKS
CASA GRANDE    NOT AVBL
GILA BEND      CLEAR     50  21  32 CALM      29.98R
$$

AZZ503-504-507>509-240700-
SOUTHEAST ARIZONA

CITY           SKY/WX    TMP DP  RH WIND       PRES   REMARKS
TUCSON         CLEAR     47  17  30 W6        30.00R
6HR MIN TEMP:  47; 6HR MAX TEMP:  63;

DAVIS-MONTHAN  CLEAR     47  17  30 NW6       29.99R
6HR MIN TEMP:  47; 6HR MAX TEMP:  62;

NOGALES        CLEAR     42  22  44 SE5       29.99R
6HR MIN TEMP:  39; 6HR MAX TEMP:  61;

SIERRA VISTA   CLEAR     42  16  35 NW15      29.97R
6HR MIN TEMP:  42; 6HR MAX TEMP:  58;

DOUGLAS        CLEAR     40  14  34 N12       29.96R WCI  33
6HR MIN TEMP:  38; 6HR MAX TEMP:  65;

SAFFORD        CLEAR     45  15  30 W10       29.92R
6HR MIN TEMP:  44; 6HR MAX TEMP:  60;

$$

AZZ020-021-025-026-031-240700-
SOUTHWEST ARIZONA

CITY           SKY/WX    TMP DP  RH WIND       PRES   REMARKS
YUMA           CLEAR     54  35  48 W8        30.01R
6HR MIN TEMP:  54; 6HR MAX TEMP:  65;

$$

CAZ031-033-041-043-047-048-061-240700-
SOUTHERN CALIFORNIA

CITY           SKY/WX    TMP DP  RH WIND       PRES   REMARKS
DOWNTOWN L.A.  CLEAR     52  15  23 NW5       30.08F
6HR MIN TEMP:  52; 6HR MAX TEMP:  59;

L.A. AIRPORT   CLEAR     51  16  24 N9        30.10R
6HR MIN TEMP:  51; 6HR MAX TEMP:  57;

SAN DIEGO      PTCLDY    54  35  48 E5        30.14R
6HR MIN TEMP:  54; 6HR MAX TEMP:  59;

BURBANK        CLEAR     46  17  31 N9        30.09S
6HR MIN TEMP:  46; 6HR MAX TEMP:  57;

ONTARIO        PTCLDY    46  33  60 CALM      30.08R
6HR MIN TEMP:  46; 6HR MAX TEMP:  57;

RIVERSIDE      CLEAR     46  33  60 E5        30.09R
6HR MIN TEMP:  45; 6HR MAX TEMP:  57;

PALM SPRINGS   CLEAR     57  30  35 W14G23    30.02R
6HR MIN TEMP:  56; 6HR MAX TEMP:  66;

EL CENTRO NAS  CLEAR     54  31  41 W17       30.04R
6HR MIN TEMP:  54; 6HR MAX TEMP:  67;

IMPERIAL       CLEAR     53  34  48 W13       30.01R
6HR MIN TEMP:  53; 6HR MAX TEMP:  67;

BLYTHE         CLEAR     50  33  52 NW9       30.01R
6HR MIN TEMP:  50; 6HR MAX TEMP:  63;

NEEDLES        CLEAR     53  22  29 W7        30.00R
6HR MIN TEMP:  53; 6HR MAX TEMP:  64;

$$

NVZ020-UTZ003-240700-
SOUTHERN NEVADA-UTAH

CITY           SKY/WX    TMP DP  RH WIND       PRES   REMARKS
LAS VEGAS      PTCLDY    48   5  17 NW7       29.97R
6HR MIN TEMP:  48; 6HR MAX TEMP:  55;

SALT LAKE CITY FLURRIES  28  23  81 N9        29.91R WCI  19
6HR MIN TEMP:  28; 6HR MAX TEMP:  31; 6HR PCP: TRACE;

$$

NMZ009-TXZ055-240700-
NEW MEXICO-WEST TEXAS

CITY           SKY/WX    TMP DP  RH WIND       PRES   REMARKS
ALBUQUERQUE    CLEAR     38  12  34 W9        29.81R WCI  31
6HR MIN TEMP:  38; 6HR MAX TEMP:  52;

EL PASO        CLEAR     56   3  11 W16G29    29.84S
6HR MIN TEMP:  56; 6HR MAX TEMP:  70;

$$


........................KEY........................
SKY/WX - SKY CONDITION/WEATHER
TMP    - TEMPERATURE IN FAHRENHEIT
DP     - DEW POINT IN FAHRENHEIT
RH     - RELATIVE HUMIDITY IN PERCENT
WIND   - DIRECTION AND SPEED IN MILES PER HOUR (MPH)
VRB    - VARIABLE WIND DIRECTION
PRES   - MEAN SEA LEVEL PRESSURE IN INCHES OF MERCURY
         F - FALLING PRESSURE   R - RISING PRESSURE
         S - STEADY PRESSURE
VSB    - VISIBILITY IN MILES
HX     - HEAT INDEX IN FAHRENHEIT
WCI    - WIND CHILL INDEX IN FAHRENHEIT
TC     - TEMPERATURE IN CELSIUS WHICH IS ALSO KNOWN AS
         TEMPERATURE IN CENTIGRADE
AFB    - AIR FORCE BASE
         LUKE AFB IS LUKE AIR FORCE BASE
         DAVIS-MONTHAN IS DAVIS-MONTHAN AIR FORCE BASE
NAS    - NAVAL AIR STATION
         EL CENTRO NAS IS EL CENTRO NAVAL AIR STATION
N/A    - NOT AVAILABLE





USA.gov is the U.S. government's official web portal to all federal, state and local government web resources and services.